Weather observations for the past three days for
Hayward, Hayward Air Terminal
Imperial (Metric)
Date Time (pdt) Wind (mph) Vis. (mi.) Weather Sky Cond. Temperature (ºF) Relative Humidity Wind Chill (°F) Heat Index (°F) Pressure Precipitation (in)
Air Dwpt 6 hour altimeter (in) sea level (mb) 1 hr 3 hr 6 hr
Max. Min.
20 14:54 W 14 10.00 Fair CLR 72 55.9 57% 29.95 1015.1
20 13:54 W 13 10.00 Fair CLR 73.9 57 56% 29.95 1015.0
20 12:54 W 10 10.00 Fair CLR 75.9 55.9 50% 78 29.95 1015.1
20 11:54 W 7 10.00 Fair CLR 77 55.9 48% 79 29.95 1014.9
20 10:54 W 7 10.00 Fair CLR 73.9 55.9 75 61 54% 29.95 1015.1
20 09:54 W 6 10.00 Fair CLR 70 55.9 61% 29.95 1015.1
20 08:54 W 5 10.00 Fair CLR 68 55.9 65% 29.96 1015.2
20 07:54 NW 3 10.00 Fair CLR 64.9 55.9 73% 29.95 1014.9
20 06:54 NW 5 10.00 Fair CLR 62.1 54 75% 29.93 1014.3
20 05:54 Calm 10.00 Fair CLR 62.1 54 75% 29.92 1014.0
20 04:54 Calm 10.00 Fair CLR 62.1 54 64.9 62.1 75% 29.91 1013.8
20 03:54 N 3 10.00 Fair CLR 62.1 54 75% 29.91 1013.8
20 02:54 Calm 10.00 Fair CLR 63 55 76% 29.92 1014.2
20 01:54 Calm 10.00 Fair CLR 64 55 73% 29.93 1014.5
20 00:54 NW 6 10.00 Fair CLR 63 55 76% 29.94 1014.8
19 23:54 NW 8 10.00 Fair CLR 64 55 73% 29.95 1015.0
19 22:54 NW 7 10.00 Fair CLR 64.9 55.9 82.9 64.9 73% 29.95 1015.1
19 21:54 NW 10 10.00 Fair CLR 66.9 55.9 68% 29.95 1015.2
19 20:54 W 8 10.00 Fair CLR 70 57 64% 29.94 1014.7
19 19:54 W 8 10.00 Fair CLR 73.9 57 56% 29.92 1014.0
19 18:54 W 8 10.00 Fair CLR 78.1 57 48% 79 29.9 1013.5
19 17:54 W 9 10.00 Fair CLR 80.1 55.9 44% 80 29.9 1013.4
19 16:54 Calm 10.00 Fair CLR 82.9 55.9 90 75 40% 82 29.91 1013.7
19 15:54 Calm 10.00 Fair CLR 84 55.9 38% 83 29.93 1014.3
19 14:54 Calm 10.00 Fair CLR 88 52 29% 86 29.94 1014.8
19 13:54 Calm 10.00 Fair CLR 88 51.1 28% 85 29.96 1015.4
19 12:54 W 7 10.00 Fair CLR 82.9 54 37% 82 29.98 1015.9
19 11:54 W 3 10.00 Fair CLR 79 55.9 45% 80 29.99 1016.3
19 10:54 Vrbl 6 10.00 Fair CLR 75 57.9 75 59 55% 78 29.99 1016.4
19 09:54 W 3 10.00 Fair CLR 72 57.9 61% 30 1016.8
19 08:54 Calm 10.00 Fair CLR 68 55.9 65% 30.01 1016.9
19 07:54 Calm 10.00 Fair CLR 64 55.9 75% 30.01 1017.0
19 06:54 NW 3 10.00 Fair CLR 61 55 81% 29.99 1016.5
19 05:54 N 3 10.00 Fair CLR 59 53.1 81% 0 0.0
19 04:54 NW 5 10.00 Fair CLR 60.1 54 66 60.1 80% 0 0.0
19 03:54 Calm 10.00 Fair CLR 61 53.1 75% 0 0.0
19 02:54 Calm 10.00 Fair CLR 61 53.1 75% 0 0.0
19 01:54 NW 5 10.00 Fair CLR 61 53.1 75% 0 0.0
19 00:54 Calm 10.00 Fair CLR 63 53.1 70% 0 0.0
18 23:54 NW 3 10.00 Fair CLR 63 54 73% 0 0.0
18 22:54 NW 3 10.00 Fair CLR 64 54 73.9 64 70% 0 0.0
18 21:54 W 5 10.00 Fair CLR 64.9 55 70% 0 0.0
18 20:54 NW 8 10.00 Fair CLR 64.9 55 70% 0 0.0
18 19:54 W 12 10.00 Fair CLR 68 55.9 65% 0 0.0
18 18:54 W 9 10.00 Fair CLR 70 57 64% 0 0.0
18 17:54 W 13 10.00 Fair CLR 72 55.9 57% 0 0.0
18 16:54 W 14 10.00 Fair CLR 73.9 55.9 81 69.1 54% 0 0.0
18 15:54 W 14 10.00 Fair CLR 77 57 50% 79 0 0.0
18 14:54 Calm 10.00 Fair CLR 78.1 55.9 47% 79 0 0.0
18 13:54 W 9 10.00 Fair CLR 79 57 47% 80 0 0.0
18 12:54 W 6 10.00 Fair CLR 77 55.9 48% 79 30 1016.9
18 11:54 W 7 10.00 Fair CLR 73 55.9 55% 30.01 1017.0
18 10:54 W 5 10.00 Fair CLR 69.1 55.9 70 61 63% 30.01 1017.1
18 09:54 W 6 10.00 Fair CLR 66 55.9 70% 30.01 1017.0
18 08:54 W 5 10.00 A Few Clouds FEW009 64 55.9 75% 30.01 1017.1
18 07:54 NW 3 10.00 Overcast OVC009 62.1 55.9 80% 30.01 1016.9
18 06:54 NW 5 10.00 Overcast OVC007 61 55 81% 29.99 1016.5
18 05:54 Calm 10.00 Overcast OVC009 61 55 81% 29.99 1016.5
18 04:54 S 3 10.00 Overcast OVC010 61 55 62.1 60.1 81% 29.98 1016.1
18 03:54 N 3 10.00 Mostly Cloudy BKN010 61 55 81% 29.98 1016.1
18 02:54 Calm 10.00 Mostly Cloudy BKN010 61 55 81% 29.99 1016.3
18 01:54 N 3 10.00 Overcast OVC009 62.1 55 78% 29.99 1016.5
18 00:54 NW 5 10.00 Overcast OVC009 61 55 81% 30 1016.8
17 23:54 NW 7 10.00 Overcast OVC009 62.1 55 78% 30.01 1017.0
17 22:54 NW 5 10.00 Overcast OVC010 62.1 55 72 62.1 78% 30.01 1017.0
17 21:54 NW 5 10.00 Partly Cloudy SCT010 63 55.9 78% 30.01 1017.1
17 20:54 W 8 10.00 Fair CLR 64 55.9 75% 30 1016.8
17 19:54 W 7 10.00 Fair CLR 66.9 57 71% 29.99 1016.4
17 18:54 W 9 10.00 Fair CLR 69.1 57 66% 29.99 1016.4
17 17:54 W 10 10.00 Fair CLR 71.1 57 61% 29.99 1016.6
17 16:54 W 9 10.00 Fair CLR 72 57 73 62.1 59% 30 1016.9
17 15:54 W 12 10.00 Fair CLR 72 57 59% 30.02 1017.3
Date Time (pdt) Wind (mph) Vis. (mi.) Weather Sky Cond. Air Dwpt Max. Min. Relative Humidity Wind Chill (°F) Heat Index (°F) altimeter (in) sea level (mb) 1 hr 3 hr 6 hr
6 hour
Temperature (ºF) Pressure Precipitation (in)